Regional Weather Roundup
Issued by NWS

Home | Current Version | Previous Version | Graphics & Text | Print | Product List | Glossary On
Versions: 1 2 3 4 5 6 7 8 9 10 11 12 13 14 15 16 17 18 19 20 21 22 23 24 25 26 27 28 29 30 31 32 33 34 35 36 37 38 39 40 41 42 43 44 45 46 47 48 49 50
000
ASUS43 KTOP 011608
RWRKS

WEATHER ROUNDUP FOR KANSAS
NATIONAL WEATHER SERVICE GOODLAND KS
1000 AM CST SUN FEB 01 2015

NOTE:  "FAIR" INDICATES FEW OR NO CLOUDS BELOW 12,000 FEET WITH NO
SIGNIFICANT WEATHER AND/OR OBSTRUCTIONS TO VISIBILITY.

KSZ001>006-013>018-027>032-041>047-011700-
NORTHWEST KANSAS

CITY           SKY/WX    TMP DP  RH WIND       PRES   REMARKS
GOODLAND       PTSUNNY   17  13  84 N22G30    30.18R WCI   0
HAYS           CLOUDY    18   3  53 NW28G36   30.14R WCI  -1
HILL CITY      CLOUDY    15   8  73 NW28G36   30.18R WCI  -5
RUSSELL        FLURRIES  18  13  80 NW31G39   30.11R WCI  -2
$$

KSZ061>065-074>080-084>089-011700-
SOUTHWEST KANSAS

CITY           SKY/WX    TMP DP  RH WIND       PRES   REMARKS
DODGE CITY     MOSUNNY   23  14  68 N23G31    30.12R WCI   7
ELKHART          N/A     27  16  63 N16         N/A  WCI  15
GARDEN CITY    SUNNY     23  14  68 N30G40    30.14R WCI   5
LIBERAL        SUNNY     28  19  69 N32G40    30.16R WCI  12
PRATT          CLOUDY    23  18  80 N30G38    30.08R WCI   5
$$

KSZ066>073-081>083-090>101-011700-
SOUTHEAST KANSAS

CITY           SKY/WX    TMP DP  RH WIND       PRES   REMARKS
CHANUTE        CLOUDY    34  31  88 NW22G35   29.85R WCI  22
COFFEYVILLE    CLOUDY    36  31  82 NW21G36   29.88R WCI  25
HUTCHINSON     FLURRIES  22  14  71 NW30G37   30.04R WCI   4
MEDICINE LODGE   N/A     25  17  72 N33G44    30.05R WCI   7
NEWTON         CLOUDY    23  14  68 NW33G39   29.99R WCI   5
PARSONS        CLOUDY    36  32  85 NW23G35   29.87R WCI  24
WICHITA INTL   CLOUDY    25  18  74 N32G43    30.01R WCI   8
WICHITA JABRA  CLOUDY    24  23  96 NW30G40   30.00R WCI   7
WICHITA MCCONL CLOUDY    25  19  77 NW23G38   30.00R WCI  10
WINFIELD       CLOUDY    29  23  78 NW30G39   30.00R WCI  13
$$

KSZ007>012-019>026-033>040-048>060-102>105-011700-
NORTHEAST KANSAS

CITY           SKY/WX    TMP DP  RH WIND       PRES   REMARKS
CONCORDIA      LGT SNOW  15  11  83 N30G44    30.06R VSB 1   WCI  -5
EMPORIA        CLOUDY    27  22  81 NW26G38   29.90R WCI  12
LAWRENCE       LGT SNOW  33  31  92 NW15      29.81R FOG     WCI  23
MANHATTAN      LGT SNOW  22  18  85 NW18G33   29.97R FOG     WCI   7
MARYSVILLE     SNOW      21  19  93 NW22G30   29.96R VSB 1/4 WCI   5
OLATHE IND     FLURRIES  33  32  96 NW16      29.78R WCI  23
OLATHE EXE     LGT SNOW  34  33  96 NW16G22   29.75R FOG     WCI  24
SALINA         LGT SNOW  21  15  78 N32G41    30.07R WCI   2
TOPEKA BILLARD LGT SNOW  31  28  89 NW18G32   29.85R FOG     WCI  19
TOPEKA FORBES  SNOW      31  28  89 NW29G36   29.84R VSB 1/2 WCI  16
$$


USA.gov is the U.S. government's official web portal to all federal, state and local government web resources and services.